Terre Haute, IN

9:09 AM EDT on April 27, 2017 (GMT -0400)
Terre Haute International-Hulman

Weather History for KHUF - October, 2012

Change the Weather History Date:

Friday, October 19, 2012

  Actual Average Record
Temperature  
Mean Temperature 52 °F 53 °F  
Max Temperature 56 °F 65 °F 82 °F (1965)
Min Temperature 48 °F 42 °F 28 °F (1996)
Degree Days  
Heating Degree Days 13 12  
Month to date heating degree days 204 181  
Since 1 July heating degree days 293 259  
Cooling Degree Days 0 0  
Month to date cooling degree days 2 12  
Year to date cooling degree days 1582 990  
Growing Degree Days 2 (Base 50)    
Moisture  
Dew Point 44 °F    
Average Humidity 66    
Maximum Humidity 80    
Minimum Humidity 51    
Precipitation  
Precipitation 0.18 in 0.13 in 1.24 in (2011)
Month to date precipitation 2.19 2.20  
Year to date precipitation 23.92 36.90  
Sea Level Pressure  
Sea Level Pressure 29.60 in    
Wind  
Wind Speed 8 mph (SW)    
Max Wind Speed 16 mph    
Max Gust Speed 23 mph    
Visibility 10 miles    
Events Rain    
T = Trace of Precipitation, MM = Missing Value Source: NWS Daily Summary

Daily Weather History Graph

Daily Weather History Graph

Search for Another Location

Airport or City:

Trip Planner

Search our weather history database for the weather conditions in past years. The results will help you decide how hot, cold, wet, or windy it might be!

Date:

Astronomy

Oct. 19, 2012 Rise Set
Actual Time 8:03 AM EDT 7:03 PM EDT
Civil Twilight 7:36 AM EDT 7:30 PM EDT
Nautical Twilight 7:05 AM EDT 8:02 PM EDT
Astronomical Twilight 6:34 AM EDT 8:33 PM EDT
Moon 12:45 PM EDT (10/19) 10:42 PM EDT (10/19)
Length of Visible Light 11h 54m
Length of Day
10h 59m
Waxing Crescent, 23% of the Moon is Illuminated
Oct 19
Waxing Crescent
Oct 21
First Quarter
Oct 29
Full
Nov 6
Last Quarter
Nov 13
New

Hourly Weather History & Observations

Time (EDT) Temp. Dew Point Humidity Pressure Visibility Wind Dir Wind Speed Gust Speed Precip Events Conditions
12:53 AM 55.0 °F 37.0 °F 51% 29.55 in 10.0 mi South 9.2 mph - N/A   Overcast
1:53 AM 55.9 °F 36.0 °F 47% 29.53 in 10.0 mi SSW 10.4 mph - 0.00 in Rain Light Rain
2:53 AM 51.1 °F 42.1 °F 71% 29.56 in 10.0 mi West 6.9 mph - 0.00 in Rain Light Rain
3:53 AM 48.9 °F 43.0 °F 80% 29.56 in 10.0 mi SSW 3.5 mph - 0.03 in Rain Light Rain
4:53 AM 48.0 °F 43.0 °F 83% 29.54 in 10.0 mi South 4.6 mph - 0.04 in Rain Light Rain
5:53 AM 48.0 °F 43.0 °F 83% 29.53 in 10.0 mi South 6.9 mph - 0.00 in   Overcast
6:53 AM 50.0 °F 42.1 °F 74% 29.53 in 10.0 mi SW 9.2 mph - N/A   Overcast
7:53 AM 50.0 °F 42.1 °F 74% 29.55 in 10.0 mi SSW 6.9 mph - N/A   Overcast
8:53 AM 50.0 °F 41.0 °F 71% 29.55 in 10.0 mi SW 10.4 mph - N/A   Overcast
9:12 AM 50.0 °F 42.8 °F 76% 29.55 in 10.0 mi SW 6.9 mph - N/A   Overcast
9:53 AM 50.0 °F 43.0 °F 77% 29.56 in 8.0 mi SW 8.1 mph - 0.00 in Rain Light Rain
10:10 AM 48.2 °F 42.8 °F 82% 29.56 in 8.0 mi WSW 9.2 mph - 0.02 in Rain Light Rain
10:53 AM 50.0 °F 44.1 °F 80% 29.56 in 10.0 mi SSW 5.8 mph - 0.03 in Rain Light Rain
11:13 AM 50.0 °F 44.6 °F 82% 29.56 in 10.0 mi SSW 8.1 mph - 0.00 in Rain Light Rain
11:53 AM 50.0 °F 44.1 °F 80% 29.57 in 8.0 mi SSW 12.7 mph - 0.02 in Rain Light Rain
12:03 PM 48.2 °F 44.6 °F 87% 29.57 in 8.0 mi SSW 10.4 mph 19.6 mph 0.01 in Rain Light Rain
12:15 PM 48.2 °F 44.6 °F 87% 29.57 in 9.0 mi SW 11.5 mph - 0.01 in Rain Light Rain
12:41 PM 50.0 °F 44.6 °F 82% 29.57 in 10.0 mi SW 11.5 mph - 0.02 in Rain Light Rain
12:53 PM 50.0 °F 44.1 °F 80% 29.58 in 10.0 mi SW 11.5 mph 23.0 mph 0.02 in Rain Light Rain
1:00 PM 50.0 °F 44.6 °F 82% 29.58 in 8.0 mi SW 11.5 mph 18.4 mph 0.01 in Rain Light Rain
1:08 PM 50.0 °F 44.6 °F 82% 29.58 in 10.0 mi SW 11.5 mph - 0.01 in   Overcast
1:53 PM 50.0 °F 45.0 °F 83% 29.58 in 10.0 mi WSW 9.2 mph - 0.01 in   Overcast
2:00 PM 50.0 °F 44.6 °F 82% 29.58 in 10.0 mi SW 8.1 mph - N/A   Overcast
2:29 PM 51.8 °F 42.8 °F 71% 29.58 in 10.0 mi West 9.2 mph - 0.00 in   Overcast
2:53 PM 50.0 °F 42.1 °F 74% 29.59 in 10.0 mi West 8.1 mph - 0.00 in   Overcast
3:01 PM 51.8 °F 42.8 °F 71% 29.59 in 10.0 mi West 8.1 mph - N/A   Overcast
3:53 PM 50.0 °F 44.1 °F 80% 29.62 in 10.0 mi WSW 8.1 mph - 0.01 in Rain Light Rain
4:45 PM 50.0 °F 46.4 °F 87% 29.63 in 10.0 mi WSW 11.5 mph 16.1 mph 0.01 in Rain Light Rain
4:53 PM 50.0 °F 46.0 °F 86% 29.63 in 10.0 mi WSW 9.2 mph - 0.01 in   Overcast
5:02 PM 50.0 °F 46.4 °F 87% 29.63 in 5.0 mi West 8.1 mph - 0.00 in Rain Light Rain
5:22 PM 50.0 °F 46.4 °F 87% 29.64 in 10.0 mi West 9.2 mph - 0.01 in   Overcast
5:53 PM 51.1 °F 44.1 °F 77% 29.65 in 10.0 mi WSW 9.2 mph - 0.01 in   Overcast
6:53 PM 51.1 °F 44.1 °F 77% 29.67 in 10.0 mi WSW 6.9 mph - N/A   Overcast
7:20 PM 51.8 °F 44.6 °F 76% 29.67 in 10.0 mi WSW 11.5 mph 16.1 mph N/A   Overcast
7:46 PM 50.0 °F 44.6 °F 82% 29.68 in 10.0 mi WSW 8.1 mph - N/A   Overcast
7:53 PM 50.0 °F 44.1 °F 80% 29.69 in 10.0 mi WSW 6.9 mph - N/A   Overcast
8:53 PM 50.0 °F 44.1 °F 80% 29.70 in 10.0 mi WSW 6.9 mph - N/A   Overcast
9:53 PM 50.0 °F 43.0 °F 77% 29.72 in 10.0 mi SW 6.9 mph - N/A   Overcast
10:53 PM 50.0 °F 44.1 °F 80% 29.73 in 10.0 mi WSW 8.1 mph - N/A   Overcast
11:53 PM 50.0 °F 44.1 °F 80% 29.73 in 10.0 mi WSW 8.1 mph - N/A   Overcast